START_TIME,STEP,MOV.,A46,t_acc.,A13,t_acc.,M47,t_acc.,A17,t_acc.,A28,t_acc.,M38,t_acc.
1980-11-14 06:00:14.070 ,5,0,,0,0.,4.8,0.,4.8,,0,0.,4.8,0.,4.8
1980-11-14 06:00:18.870 ,5,0,,0,0.,4.8,0.,4.8,,0,0.,4.8,0.,4.8
1980-11-14 06:00:23.670 ,5,0,,0,0.,4.8,0.,4.8,,0,0.,4.8,0.,4.8
1980-11-14 06:00:28.470 ,5,0,,0,0.,4.8,0.,4.8,,0,0.,4.8,0.,4.8
1980-11-14 06:00:33.270 ,5,0,,0,0.,4.8,0.,4.8,,0,0.,4.8,0.,4.8
1980-11-14 06:00:38.070 ,6,0,,0,0.,4.8,0.,4.8,,0,0.,4.8,0.,4.8
1980-11-14 06:00:42.870 ,6,0,,0,0.,4.8,0.,4.8,,0,0.,4.8,0.,4.8
1980-11-14 06:00:47.670 ,6,0,,0,0.,4.8,0.,4.8,,0,0.,4.8,0.,4.8
1980-11-14 06:00:52.470 ,6,0,,0,0.,4.8,0.,4.8,,0,1.,4.8,0.,4.8
1980-11-14 06:00:57.270 ,6,0,,0,0.,4.8,0.,4.8,,0,0.,4.8,0.,4.8
1980-11-14 06:01:02.070 ,6,0,,0,0.,4.8,0.,4.8,,0,0.,4.8,0.,4.8
1980-11-14 06:01:06.870 ,6,0,,0,0.,4.8,0.,4.8,,0,0.,4.8,0.,4.8
1980-11-14 06:01:11.670 ,6,0,,0,0.,4.8,0.,4.8,,0,0.,4.8,0.,4.8
1980-11-14 06:01:16.470 ,6,0,,0,0.,4.8,0.,4.8,,0,0.,4.8,0.,4.8
1980-11-14 06:01:21.270 ,6,0,,0,0.,4.8,0.,4.8,,0,0.,4.8,0.,4.8
1980-11-14 06:01:26.070 ,7,0,,0,0.,4.8,0.,4.8,,0,0.,4.8,0.,4.8
1980-11-14 06:01:30.870 ,7,0,,0,0.,4.8,0.,4.8,,0,0.,4.8,0.,4.8
1980-11-14 06:01:35.670 ,7,0,,0,0.,4.8,0.,4.8,,0,0.,4.8,0.,4.8
1980-11-14 06:01:40.470 ,7,0,,0,0.,4.8,0.,4.8,,0,0.,4.8,0.,4.8
1980-11-14 06:01:45.270 ,7,0,,0,0.,4.8,0.,4.8,,0,0.,4.8,0.,4.8
1980-11-14 06:01:50.070 ,7,0,,0,0.,4.8,0.,4.8,,0,0.,4.8,0.,4.8
1980-11-14 06:01:54.870 ,7,0,,0,0.,4.8,0.,4.8,,0,0.,4.8,0.,4.8
1980-11-14 06:01:59.670 ,7,0,,0,0.,4.8,0.,4.8,,0,0.,4.8,0.,4.8
1980-11-14 06:02:04.470 ,7,0,,0,0.,4.8,0.,4.8,,0,0.,4.8,0.,4.8
1980-11-14 06:02:09.270 ,7,0,,0,0.,4.8,0.,4.8,,0,0.,4.8,0.,4.8
1980-11-14 06:02:14.070 ,7,0,,0,0.,4.8,0.,4.8,,0,0.,4.8,0.,4.8
1980-11-14 06:02:18.870 ,7,0,,0,0.,4.8,0.,4.8,,0,0.,4.8,0.,4.8
1980-11-14 06:02:23.670 ,7,0,,0,0.,4.8,0.,4.8,,0,0.,4.8,0.,4.8
1980-11-14 06:02:28.470 ,7,0,,0,0.,4.8,0.,4.8,,0,0.,4.8,0.,4.8
1980-11-14 06:02:33.270 ,7,0,,0,0.,4.8,0.,4.8,,0,0.,4.8,0.,4.8
1980-11-14 06:02:38.070 ,7,0,,0,0.,4.8,0.,4.8,,0,0.,4.8,0.,4.8
1980-11-14 06:02:42.870 ,7,0,,0,1.,4.8,0.,4.8,,0,0.,4.8,0.,4.8
1980-11-14 06:02:47.670 ,7,0,,0,0.,4.8,0.,4.8,,0,0.,4.8,0.,4.8
1980-11-14 06:02:52.470 ,7,0,,0,0.,4.8,0.,4.8,,0,0.,4.8,0.,4.8
1980-11-14 06:02:57.270 ,7,0,,0,0.,4.8,0.,4.8,,0,0.,4.8,0.,4.8
1980-11-14 06:03:02.070 ,6,0,,0,0.,4.8,0.,4.8,,0,0.,4.8,0.,4.8
1980-11-14 06:03:06.870 ,6,0,,0,0.,4.8,0.,4.8,,0,0.,4.8,0.,4.8
1980-11-14 06:03:11.670 ,6,0,,0,0.,4.8,0.,4.8,,0,0.,4.8,0.,4.8
1980-11-14 06:03:16.470 ,6,0,,0,0.,4.8,0.,4.8,,0,0.,4.8,0.,4.8
1980-11-14 06:03:21.270 ,6,0,,0,0.,4.8,0.,4.8,,0,0.,4.8,0.,4.8
1980-11-14 06:03:26.070 ,6,0,,0,0.,4.8,0.,4.8,,0,0.,4.8,0.,4.8
1980-11-14 06:03:30.870 ,6,0,,0,0.,4.8,0.,4.8,,0,0.,4.8,0.,4.8
1980-11-14 06:03:35.670 ,6,0,,0,0.,4.8,0.,4.8,,0,0.,4.8,0.,4.8
1980-11-14 06:03:40.470 ,6,0,,0,0.,4.8,0.,4.8,,0,0.,4.8,0.,4.8
1980-11-14 06:03:45.270 ,6,0,,0,0.,4.8,0.,4.8,,0,0.,4.8,0.,4.8
1980-11-14 06:03:50.070 ,5,0,,0,0.,4.8,0.,4.8,,0,0.,4.8,0.,4.8
1980-11-14 06:03:54.870 ,5,0,,0,0.,4.8,0.,4.8,,0,0.,4.8,0.,4.8
1980-11-14 06:03:59.670 ,5,0,,0,0.,4.8,0.,4.8,,0,0.,4.8,0.,4.8
1980-11-14 06:04:04.470 ,5,0,,0,0.,4.8,0.,4.8,,0,0.,4.8,0.,4.8
1980-11-14 06:04:09.270 ,5,0,,0,0.,4.8,0.,4.8,,0,0.,4.8,0.,4.8
1980-11-14 06:04:14.070 ,5,0,,0,0.,4.8,0.,4.8,,0,0.,4.8,0.,4.8
1980-11-14 06:04:18.870 ,5,0,,0,0.,4.8,0.,4.8,,0,0.,4.8,0.,4.8
1980-11-14 06:04:23.670 ,5,0,,0,0.,4.8,0.,4.8,,0,0.,4.8,0.,4.8
1980-11-14 06:04:28.470 ,5,0,,0,0.,4.8,0.,4.8,,0,0.,4.8,0.,4.8
1980-11-14 06:04:33.270 ,5,0,,0,0.,4.8,0.,4.8,,0,0.,4.8,0.,4.8
1980-11-14 06:04:38.070 ,4,0,,0,0.,4.8,0.,4.8,,0,0.,4.8,0.,4.8
1980-11-14 06:04:42.870 ,4,0,,0,0.,4.8,0.,4.8,,0,0.,4.8,0.,4.8
1980-11-14 06:04:47.670 ,4,0,,0,0.,4.8,0.,4.8,,0,0.,4.8,0.,4.8
1980-11-14 06:04:52.470 ,4,0,,0,0.,4.8,0.,4.8,,0,0.,4.8,0.,4.8
1980-11-14 06:04:57.270 ,4,0,,0,0.,4.8,0.,4.8,,0,0.,4.8,0.,4.8
1980-11-14 06:05:02.070 ,4,0,,0,0.,4.8,0.,4.8,,0,0.,4.8,0.,4.8
1980-11-14 06:05:06.870 ,4,0,,0,0.,4.8,0.,4.8,,0,0.,4.8,0.,4.8
1980-11-14 06:05:11.670 ,4,0,,0,0.,4.8,0.,4.8,,0,0.,4.8,0.,4.8
1980-11-14 06:05:16.470 ,4,0,,0,0.,4.8,0.,4.8,,0,0.,4.8,0.,4.8
1980-11-14 06:05:21.270 ,4,0,,0,0.,4.8,0.,4.8,,0,0.,4.8,0.,4.8
1980-11-14 06:05:26.070 ,3,0,,0,0.,4.8,0.,4.8,,0,0.,4.8,0.,4.8
1980-11-14 06:05:30.870 ,3,0,,0,0.,4.8,0.,4.8,,0,1.,4.8,0.,4.8
1980-11-14 06:05:35.670 ,3,0,,0,0.,4.8,0.,4.8,,0,0.,4.8,0.,4.8
1980-11-14 06:05:40.470 ,3,0,,0,1.,4.8,0.,4.8,,0,0.,4.8,0.,4.8
1980-11-14 06:05:45.270 ,3,0,,0,0.,4.8,0.,4.8,,0,0.,4.8,0.,4.8
1980-11-14 06:05:50.070 ,3,0,,0,0.,4.8,0.,4.8,,0,0.,4.8,0.,4.8
1980-11-14 06:05:54.870 ,3,0,,0,0.,4.8,0.,4.8,,0,0.,4.8,0.,4.8
1980-11-14 06:05:59.670 ,3,0,,0,0.,4.8,0.,4.8,,0,0.,4.8,0.,4.8
1980-11-14 06:06:04.470 ,3,0,,0,0.,4.8,0.,4.8,,0,0.,4.8,0.,4.8
1980-11-14 06:06:09.270 ,3,0,,0,0.,4.8,0.,4.8,,0,0.,4.8,0.,4.8
1980-11-14 06:06:14.070 ,2,0,,0,0.,4.8,0.,4.8,,0,0.,4.8,0.,4.8
1980-11-14 06:06:18.870 ,2,0,,0,0.,4.8,0.,4.8,,0,0.,4.8,0.,4.8
1980-11-14 06:06:23.670 ,2,0,,0,0.,4.8,0.,4.8,,0,0.,4.8,0.,4.8
1980-11-14 06:06:28.470 ,2,0,,0,0.,4.8,0.,4.8,,0,0.,4.8,0.,4.8
1980-11-14 06:06:33.270 ,2,0,,0,0.,4.8,0.,4.8,,0,0.,4.8,0.,4.8
1980-11-14 06:06:38.070 ,2,0,,0,0.,4.8,0.,4.8,,0,0.,4.8,0.,4.8
1980-11-14 06:06:42.870 ,2,0,,0,1.,4.8,0.,4.8,,0,0.,4.8,0.,4.8
1980-11-14 06:06:47.670 ,2,0,,0,0.,4.8,0.,4.8,,0,0.,4.8,0.,4.8
1980-11-14 06:06:52.470 ,2,0,,0,0.,4.8,0.,4.8,,0,0.,4.8,0.,4.8
1980-11-14 06:06:57.270 ,2,0,,0,0.,4.8,0.,4.8,,0,0.,4.8,0.,4.8
1980-11-14 06:07:02.070 ,1,0,,0,0.,4.8,0.,4.8,,0,0.,4.8,0.,4.8
1980-11-14 06:07:06.870 ,1,0,,0,0.,4.8,0.,4.8,,0,0.,4.8,0.,4.8
1980-11-14 06:07:11.670 ,1,0,,0,0.,4.8,0.,4.8,,0,0.,4.8,0.,4.8
1980-11-14 06:07:16.470 ,1,0,,0,0.,4.8,0.,4.8,,0,0.,4.8,0.,4.8
1980-11-14 06:07:21.270 ,1,0,,0,0.,4.8,0.,4.8,,0,0.,4.8,0.,4.8
1980-11-14 06:07:26.070 ,1,0,,0,0.,4.8,1.,4.8,,0,0.,4.8,0.,4.8
1980-11-14 06:07:30.870 ,1,0,,0,0.,4.8,0.,4.8,,0,0.,4.8,0.,4.8
1980-11-14 06:07:35.670 ,1,0,,0,0.,4.8,0.,4.8,,0,0.,4.8,0.,4.8
1980-11-14 06:07:40.470 ,1,0,,0,0.,4.8,0.,4.8,,0,0.,4.8,0.,4.8
1980-11-14 06:07:45.270 ,1,0,,0,0.,4.8,0.,4.8,,0,0.,4.8,0.,4.8
1980-11-14 06:07:50.070 ,0,0,,0,0.,4.8,0.,4.8,,0,0.,4.8,0.,4.8
1980-11-14 06:07:54.870 ,0,0,,0,0.,4.8,0.,4.8,,0,0.,4.8,0.,4.8
1980-11-14 06:07:59.670 ,0,0,,0,0.,4.8,0.,4.8,,0,0.,4.8,0.,4.8
1980-11-14 06:08:04.470 ,0,0,,0,0.,4.8,0.,4.8,,0,0.,4.8,0.,4.8
1980-11-14 06:08:09.270 ,0,0,,0,0.,4.8,0.,4.8,,0,0.,4.8,0.,4.8
1980-11-14 06:08:14.070 ,0,0,,0,0.,4.8,0.,4.8,,0,0.,4.8,0.,4.8
1980-11-14 06:08:18.870 ,0,0,,0,0.,4.8,0.,4.8,,0,1.,4.8,0.,4.8
1980-11-14 06:08:23.670 ,0,0,,0,0.,4.8,0.,4.8,,0,0.,4.8,0.,4.8
1980-11-14 06:08:28.470 ,0,0,,0,0.,4.8,0.,4.8,,0,0.,4.8,0.,4.8
1980-11-14 06:08:33.270 ,0,0,,0,0.,4.8,0.,4.8,,0,0.,4.8,0.,4.8
1980-11-14 06:08:38.070 ,0,0,,0,0.,4.8,0.,4.8,,0,0.,4.8,0.,4.8
1980-11-14 06:08:42.870 ,0,0,,0,0.,4.8,0.,4.8,,0,0.,4.8,0.,4.8
1980-11-14 06:08:47.670 ,0,0,,0,0.,4.8,0.,4.8,,0,0.,4.8,0.,4.8
1980-11-14 06:08:52.470 ,0,0,,0,0.,4.8,0.,4.8,,0,0.,4.8,0.,4.8
1980-11-14 06:08:57.270 ,0,0,,0,0.,4.8,0.,4.8,,0,0.,4.8,0.,4.8
1980-11-14 06:09:02.070 ,0,0,,0,0.,4.8,0.,4.8,,0,0.,4.8,0.,4.8
1980-11-14 06:09:06.870 ,0,0,,0,0.,4.8,0.,4.8,,0,0.,4.8,0.,4.8
1980-11-14 06:09:11.670 ,0,0,,0,0.,4.8,0.,4.8,,0,0.,4.8,0.,4.8
1980-11-14 06:09:16.470 ,0,0,,0,0.,4.8,0.,4.8,,0,0.,4.8,0.,4.8
1980-11-14 06:09:21.270 ,0,0,,0,0.,4.8,0.,4.8,,0,0.,4.8,0.,4.8
1980-11-14 06:09:26.070 ,1,0,,0,0.,4.8,0.,4.8,,0,0.,4.8,0.,4.8
1980-11-14 06:09:30.870 ,1,0,,0,0.,4.8,0.,4.8,,0,1.,4.8,0.,4.8
1980-11-14 06:09:35.670 ,1,0,,0,0.,4.8,0.,4.8,,0,0.,4.8,0.,4.8
1980-11-14 06:09:40.470 ,1,0,,0,0.,4.8,0.,4.8,,0,0.,4.8,0.,4.8
1980-11-14 06:09:45.270 ,1,0,,0,0.,4.8,0.,4.8,,0,0.,4.8,0.,4.8
1980-11-14 06:09:50.070 ,1,0,,0,0.,4.8,0.,4.8,,0,1.,4.8,0.,4.8
1980-11-14 06:09:54.870 ,1,0,,0,0.,4.8,0.,4.8,,0,0.,4.8,0.,4.8
1980-11-14 06:09:59.670 ,1,0,,0,0.,4.8,0.,4.8,,0,0.,4.8,0.,4.8
1980-11-14 06:10:04.470 ,1,0,,0,0.,4.8,0.,4.8,,0,0.,4.8,0.,4.8
1980-11-14 06:10:09.270 ,1,0,,0,0.,4.8,0.,4.8,,0,0.,4.8,0.,4.8
1980-11-14 06:10:14.070 ,2,0,,0,0.,4.8,0.,4.8,,0,0.,4.8,0.,4.8
1980-11-14 06:10:18.870 ,2,0,,0,0.,4.8,0.,4.8,,0,0.,4.8,0.,4.8
1980-11-14 06:10:23.670 ,2,0,,0,0.,4.8,0.,4.8,,0,1.,4.8,0.,4.8
1980-11-14 06:10:28.470 ,2,0,,0,0.,4.8,0.,4.8,,0,0.,4.8,0.,4.8
1980-11-14 06:10:33.270 ,2,0,,0,0.,4.8,0.,4.8,,0,0.,4.8,0.,4.8
1980-11-14 06:10:38.070 ,2,0,,0,0.,4.8,0.,4.8,,0,0.,4.8,0.,4.8
1980-11-14 06:10:42.870 ,2,0,,0,0.,4.8,0.,4.8,,0,0.,4.8,0.,4.8
1980-11-14 06:10:47.670 ,2,0,,0,0.,4.8,0.,4.8,,0,0.,4.8,0.,4.8
1980-11-14 06:10:52.470 ,2,0,,0,0.,4.8,0.,4.8,,0,0.,4.8,0.,4.8
1980-11-14 06:10:57.270 ,2,0,,0,0.,4.8,0.,4.8,,0,0.,4.8,0.,4.8
1980-11-14 06:11:02.070 ,3,0,,0,0.,4.8,0.,4.8,,0,0.,4.8,0.,4.8
1980-11-14 06:11:06.870 ,3,0,,0,0.,4.8,0.,4.8,,0,0.,4.8,0.,4.8
1980-11-14 06:11:11.670 ,3,0,,0,0.,4.8,0.,4.8,,0,0.,4.8,0.,4.8
1980-11-14 06:11:16.470 ,3,0,,0,0.,4.8,0.,4.8,,0,0.,4.8,0.,4.8
1980-11-14 06:11:21.270 ,3,0,,0,0.,4.8,0.,4.8,,0,0.,4.8,0.,4.8
1980-11-14 06:11:26.070 ,3,0,,0,0.,4.8,0.,4.8,,0,0.,4.8,0.,4.8
1980-11-14 06:11:30.870 ,3,0,,0,0.,4.8,0.,4.8,,0,0.,4.8,0.,4.8
1980-11-14 06:11:35.670 ,3,0,,0,0.,4.8,0.,4.8,,0,0.,4.8,0.,4.8
1980-11-14 06:11:40.470 ,3,0,,0,0.,4.8,0.,4.8,,0,0.,4.8,0.,4.8
1980-11-14 06:11:45.270 ,3,0,,0,0.,4.8,0.,4.8,,0,0.,4.8,0.,4.8
1980-11-14 06:11:50.070 ,4,0,,0,0.,4.8,0.,4.8,,0,0.,4.8,0.,4.8
1980-11-14 06:11:54.870 ,4,0,,0,0.,4.8,0.,4.8,,0,0.,4.8,0.,4.8
1980-11-14 06:11:59.670 ,4,0,,0,0.,4.8,0.,4.8,,0,0.,4.8,0.,4.8
1980-11-14 06:12:04.470 ,4,0,,0,0.,4.8,0.,4.8,,0,0.,4.8,0.,4.8
1980-11-14 06:12:09.270 ,4,0,,0,1.,4.8,0.,4.8,,0,0.,4.8,0.,4.8
1980-11-14 06:12:14.070 ,4,0,,0,0.,4.8,0.,4.8,,0,0.,4.8,0.,4.8
1980-11-14 06:12:18.870 ,4,0,,0,0.,4.8,0.,4.8,,0,0.,4.8,0.,4.8
1980-11-14 06:12:23.670 ,4,0,,0,0.,4.8,0.,4.8,,0,0.,4.8,0.,4.8
1980-11-14 06:12:28.470 ,4,0,,0,0.,4.8,0.,4.8,,0,0.,4.8,0.,4.8
1980-11-14 06:12:33.270 ,4,0,,0,0.,4.8,0.,4.8,,0,0.,4.8,0.,4.8
1980-11-14 06:12:38.070 ,5,0,,0,0.,4.8,0.,4.8,,0,0.,4.8,0.,4.8
1980-11-14 06:12:42.870 ,5,0,,0,0.,4.8,0.,4.8,,0,0.,4.8,0.,4.8
1980-11-14 06:12:47.670 ,5,0,,0,0.,4.8,0.,4.8,,0,0.,4.8,0.,4.8
1980-11-14 06:12:52.470 ,5,0,,0,0.,4.8,0.,4.8,,0,0.,4.8,0.,4.8
1980-11-14 06:12:57.270 ,5,0,,0,0.,4.8,0.,4.8,,0,0.,4.8,0.,4.8
1980-11-14 06:13:02.070 ,5,0,,0,0.,4.8,0.,4.8,,0,0.,4.8,0.,4.8
1980-11-14 06:13:06.870 ,5,0,,0,0.,4.8,0.,4.8,,0,0.,4.8,0.,4.8
1980-11-14 06:13:11.670 ,5,0,,0,0.,4.8,1.,4.8,,0,0.,4.8,0.,4.8
1980-11-14 06:13:16.470 ,5,0,,0,0.,4.8,0.,4.8,,0,0.,4.8,0.,4.8
1980-11-14 06:13:21.270 ,5,0,,0,0.,4.8,0.,4.8,,0,0.,4.8,0.,4.8
1980-11-14 06:13:26.070 ,6,0,,0,0.,4.8,0.,4.8,,0,0.,4.8,0.,4.8
1980-11-14 06:13:30.870 ,6,0,,0,0.,4.8,0.,4.8,,0,0.,4.8,0.,4.8
1980-11-14 06:13:35.670 ,6,0,,0,0.,4.8,0.,4.8,,0,0.,4.8,0.,4.8
1980-11-14 06:13:40.470 ,6,0,,0,0.,4.8,0.,4.8,,0,0.,4.8,0.,4.8
1980-11-14 06:13:45.270 ,6,0,,0,0.,4.8,0.,4.8,,0,0.,4.8,0.,4.8
1980-11-14 06:13:50.070 ,6,0,,0,0.,4.8,0.,4.8,,0,0.,4.8,0.,4.8
1980-11-14 06:13:54.870 ,6,0,,0,0.,4.8,0.,4.8,,0,0.,4.8,0.,4.8
1980-11-14 06:13:59.670 ,6,0,,0,0.,4.8,0.,4.8,,0,0.,4.8,0.,4.8
1980-11-14 06:14:04.470 ,6,0,,0,0.,4.8,0.,4.8,,0,0.,4.8,0.,4.8
1980-11-14 06:14:09.270 ,6,0,,0,0.,4.8,0.,4.8,,0,0.,4.8,0.,4.8
1980-11-14 06:14:14.070 ,7,0,,0,0.,4.8,0.,4.8,,0,0.,4.8,0.,4.8
1980-11-14 06:14:18.870 ,7,0,,0,0.,4.8,0.,4.8,,0,0.,4.8,0.,4.8
1980-11-14 06:14:23.670 ,7,0,,0,0.,4.8,0.,4.8,,0,1.,4.8,0.,4.8
1980-11-14 06:14:28.470 ,7,0,,0,0.,4.8,0.,4.8,,0,0.,4.8,0.,4.8
1980-11-14 06:14:33.270 ,7,0,,0,0.,4.8,0.,4.8,,0,0.,4.8,0.,4.8
1980-11-14 06:14:38.070 ,7,0,,0,0.,4.8,0.,4.8,,0,0.,4.8,0.,4.8
1980-11-14 06:14:42.870 ,7,0,,0,0.,4.8,0.,4.8,,0,0.,4.8,0.,4.8
1980-11-14 06:14:47.670 ,7,0,,0,0.,4.8,0.,4.8,,0,0.,4.8,0.,4.8
1980-11-14 06:14:52.470 ,7,0,,0,0.,4.8,0.,4.8,,0,0.,4.8,0.,4.8
1980-11-14 06:14:57.270 ,7,0,,0,0.,4.8,0.,4.8,,0,0.,4.8,0.,4.8
1980-11-14 06:15:02.070 ,7,0,,0,0.,4.8,0.,4.8,,0,0.,4.8,0.,4.8
1980-11-14 06:15:06.870 ,7,0,,0,0.,4.8,0.,4.8,,0,0.,4.8,0.,4.8
1980-11-14 06:15:11.670 ,7,0,,0,0.,4.8,0.,4.8,,0,0.,4.8,0.,4.8
1980-11-14 06:15:16.470 ,7,0,,0,0.,4.8,0.,4.8,,0,0.,4.8,0.,4.8
1980-11-14 06:15:21.270 ,7,0,,0,0.,4.8,0.,4.8,,0,0.,4.8,0.,4.8
1980-11-14 06:15:26.070 ,7,0,,0,0.,4.8,0.,4.8,,0,0.,4.8,0.,4.8
1980-11-14 06:15:30.870 ,7,0,,0,0.,4.8,0.,4.8,,0,0.,4.8,0.,4.8
1980-11-14 06:15:35.670 ,7,0,,0,0.,4.8,0.,4.8,,0,0.,4.8,0.,4.8
1980-11-14 06:15:40.470 ,7,0,,0,0.,4.8,0.,4.8,,0,0.,4.8,0.,4.8
1980-11-14 06:15:45.270 ,7,0,,0,0.,4.8,0.,4.8,,0,0.,4.8,0.,4.8
1980-11-14 06:15:50.070 ,6,0,,0,1.,4.8,0.,4.8,,0,0.,4.8,0.,4.8
1980-11-14 06:15:54.870 ,6,0,,0,0.,4.8,0.,4.8,,0,0.,4.8,0.,4.8
1980-11-14 06:15:59.670 ,6,0,,0,0.,4.8,0.,4.8,,0,0.,4.8,0.,4.8
1980-11-14 06:16:04.470 ,6,0,,0,0.,4.8,0.,4.8,,0,0.,4.8,0.,4.8
1980-11-14 06:16:09.270 ,6,0,,0,0.,4.8,0.,4.8,,0,0.,4.8,0.,4.8
1980-11-14 06:16:14.070 ,6,0,,0,0.,4.8,0.,4.8,,0,0.,4.8,0.,4.8
1980-11-14 06:16:18.870 ,6,0,,0,0.,4.8,0.,4.8,,0,0.,4.8,0.,4.8
1980-11-14 06:16:23.670 ,6,0,,0,0.,4.8,0.,4.8,,0,0.,4.8,0.,4.8
1980-11-14 06:16:28.470 ,6,0,,0,0.,4.8,0.,4.8,,0,0.,4.8,0.,4.8
1980-11-14 06:16:33.270 ,6,0,,0,0.,4.8,0.,4.8,,0,0.,4.8,0.,4.8
1980-11-14 06:16:38.070 ,5,0,,0,0.,4.8,0.,4.8,,0,0.,4.8,0.,4.8
1980-11-14 06:16:42.870 ,5,0,,0,0.,4.8,0.,4.8,,0,0.,4.8,0.,4.8
1980-11-14 06:16:47.670 ,5,0,,0,0.,4.8,0.,4.8,,0,0.,4.8,0.,4.8
1980-11-14 06:16:52.470 ,5,0,,0,0.,4.8,0.,4.8,,0,0.,4.8,0.,4.8
1980-11-14 06:16:57.270 ,5,0,,0,0.,4.8,0.,4.8,,0,0.,4.8,0.,4.8
1980-11-14 06:17:02.070 ,5,0,,0,0.,4.8,0.,4.8,,0,0.,4.8,0.,4.8
1980-11-14 06:17:06.870 ,5,0,,0,0.,4.8,0.,4.8,,0,0.,4.8,0.,4.8
1980-11-14 06:17:11.670 ,5,0,,0,0.,4.8,0.,4.8,,0,0.,4.8,0.,4.8
1980-11-14 06:17:16.470 ,5,0,,0,0.,4.8,0.,4.8,,0,0.,4.8,0.,4.8
1980-11-14 06:17:21.270 ,5,0,,0,0.,4.8,0.,4.8,,0,0.,4.8,0.,4.8
1980-11-14 06:17:26.070 ,4,0,,0,0.,4.8,0.,4.8,,0,0.,4.8,0.,4.8
1980-11-14 06:17:30.870 ,4,0,,0,0.,4.8,0.,4.8,,0,0.,4.8,0.,4.8
1980-11-14 06:17:35.670 ,4,0,,0,0.,4.8,0.,4.8,,0,0.,4.8,0.,4.8
1980-11-14 06:17:40.470 ,4,0,,0,0.,4.8,0.,4.8,,0,0.,4.8,0.,4.8
1980-11-14 06:17:45.270 ,4,0,,0,0.,4.8,0.,4.8,,0,0.,4.8,0.,4.8
1980-11-14 06:17:50.070 ,4,0,,0,0.,4.8,0.,4.8,,0,0.,4.8,0.,4.8
1980-11-14 06:17:54.870 ,4,0,,0,0.,4.8,0.,4.8,,0,0.,4.8,0.,4.8
1980-11-14 06:17:59.670 ,4,0,,0,0.,4.8,0.,4.8,,0,0.,4.8,0.,4.8
1980-11-14 06:18:04.470 ,4,0,,0,0.,4.8,0.,4.8,,0,0.,4.8,0.,4.8
1980-11-14 06:18:09.270 ,4,0,,0,0.,4.8,0.,4.8,,0,0.,4.8,0.,4.8
1980-11-14 06:18:14.070 ,3,0,,0,0.,4.8,0.,4.8,,0,0.,4.8,0.,4.8
1980-11-14 06:18:18.870 ,3,0,,0,0.,4.8,0.,4.8,,0,0.,4.8,0.,4.8
1980-11-14 06:18:23.670 ,3,0,,0,0.,4.8,0.,4.8,,0,0.,4.8,0.,4.8
1980-11-14 06:18:28.470 ,3,0,,0,0.,4.8,0.,4.8,,0,0.,4.8,0.,4.8
1980-11-14 06:18:33.270 ,3,0,,0,0.,4.8,0.,4.8,,0,0.,4.8,0.,4.8
1980-11-14 06:18:38.070 ,3,0,,0,0.,4.8,0.,4.8,,0,0.,4.8,0.,4.8
1980-11-14 06:18:42.870 ,3,0,,0,0.,4.8,0.,4.8,,0,0.,4.8,0.,4.8
1980-11-14 06:18:47.670 ,3,0,,0,0.,4.8,0.,4.8,,0,0.,4.8,0.,4.8
1980-11-14 06:18:52.470 ,3,0,,0,0.,4.8,0.,4.8,,0,0.,4.8,0.,4.8
1980-11-14 06:18:57.270 ,3,0,,0,0.,4.8,0.,4.8,,0,0.,4.8,0.,4.8
1980-11-14 06:19:02.070 ,2,0,,0,0.,4.8,0.,4.8,,0,0.,4.8,0.,4.8
1980-11-14 06:19:06.870 ,2,0,,0,0.,4.8,0.,4.8,,0,0.,4.8,0.,4.8
1980-11-14 06:19:11.670 ,2,0,,0,0.,4.8,0.,4.8,,0,0.,4.8,0.,4.8
1980-11-14 06:19:16.470 ,2,0,,0,0.,4.8,0.,4.8,,0,0.,4.8,0.,4.8
1980-11-14 06:19:21.270 ,2,0,,0,0.,4.8,0.,4.8,,0,0.,4.8,0.,4.8
1980-11-14 06:19:26.070 ,2,0,,0,0.,4.8,0.,4.8,,0,0.,4.8,0.,4.8
1980-11-14 06:19:30.870 ,2,0,,0,0.,4.8,0.,4.8,,0,0.,4.8,0.,4.8
1980-11-14 06:19:35.670 ,2,0,,0,0.,4.8,0.,4.8,,0,0.,4.8,0.,4.8
1980-11-14 06:19:40.470 ,2,0,,0,0.,4.8,0.,4.8,,0,0.,4.8,0.,4.8
1980-11-14 06:19:45.270 ,2,0,,0,0.,4.8,0.,4.8,,0,0.,4.8,0.,4.8
1980-11-14 06:19:50.070 ,1,0,,0,0.,4.8,0.,4.8,,0,0.,4.8,0.,4.8
1980-11-14 06:19:54.870 ,1,0,,0,0.,4.8,0.,4.8,,0,0.,4.8,0.,4.8
1980-11-14 06:19:59.670 ,1,0,,0,0.,4.8,0.,4.8,,0,0.,4.8,0.,4.8
1980-11-14 06:20:04.470 ,1,0,,0,0.,4.8,0.,4.8,,0,0.,4.8,0.,4.8
1980-11-14 06:20:09.270 ,1,0,,0,0.,4.8,0.,4.8,,0,0.,4.8,0.,4.8
1980-11-14 06:20:14.070 ,1,0,,0,0.,4.8,0.,4.8,,0,0.,4.8,0.,4.8
1980-11-14 06:20:18.870 ,1,0,,0,0.,4.8,0.,4.8,,0,0.,4.8,0.,4.8
1980-11-14 06:20:23.670 ,1,0,,0,0.,4.8,0.,4.8,,0,0.,4.8,0.,4.8
1980-11-14 06:20:28.470 ,1,0,,0,0.,4.8,0.,4.8,,0,0.,4.8,0.,4.8
1980-11-14 06:20:33.270 ,1,0,,0,0.,4.8,0.,4.8,,0,1.,4.8,0.,4.8
1980-11-14 06:20:38.070 ,0,0,,0,0.,4.8,0.,4.8,,0,0.,4.8,0.,4.8
1980-11-14 06:20:42.870 ,0,0,,0,0.,4.8,0.,4.8,,0,0.,4.8,0.,4.8
1980-11-14 06:20:47.670 ,0,0,,0,0.,4.8,0.,4.8,,0,0.,4.8,0.,4.8
1980-11-14 06:20:52.470 ,0,0,,0,0.,4.8,0.,4.8,,0,0.,4.8,0.,4.8
1980-11-14 06:20:57.270 ,0,0,,0,0.,4.8,0.,4.8,,0,0.,4.8,0.,4.8
1980-11-14 06:21:02.070 ,0,0,,0,0.,4.8,0.,4.8,,0,0.,4.8,0.,4.8
1980-11-14 06:21:06.870 ,0,0,,0,0.,4.8,0.,4.8,,0,0.,4.8,0.,4.8
1980-11-14 06:21:11.670 ,0,0,,0,0.,4.8,0.,4.8,,0,0.,4.8,0.,4.8
1980-11-14 06:21:16.470 ,0,0,,0,0.,4.8,0.,4.8,,0,0.,4.8,0.,4.8
1980-11-14 06:21:21.270 ,0,0,,0,,0,,0,,0,,0,,0
1980-11-14 06:21:26.070 ,0,0,,0,0.,4.8,0.,4.8,,0,0.,4.8,0.,4.8
1980-11-14 06:21:30.870 ,0,0,,0,0.,4.8,0.,4.8,,0,0.,4.8,0.,4.8
1980-11-14 06:21:35.670 ,0,0,,0,0.,4.8,0.,4.8,,0,0.,4.8,0.,4.8
1980-11-14 06:21:40.470 ,0,0,,0,0.,4.8,0.,4.8,,0,0.,4.8,0.,4.8
1980-11-14 06:21:45.270 ,0,0,,0,0.,4.8,0.,4.8,,0,0.,4.8,0.,4.8
1980-11-14 06:21:50.070 ,0,0,,0,0.,4.8,0.,4.8,,0,0.,4.8,0.,4.8
1980-11-14 06:21:54.870 ,0,0,,0,0.,4.8,0.,4.8,,0,0.,4.8,0.,4.8
1980-11-14 06:21:59.670 ,0,0,,0,0.,4.8,0.,4.8,,0,0.,4.8,0.,4.8
1980-11-14 06:22:04.470 ,0,0,,0,0.,4.8,0.,4.8,,0,0.,4.8,0.,4.8
1980-11-14 06:22:09.270 ,0,0,,0,0.,4.8,0.,4.8,,0,0.,4.8,0.,4.8
1980-11-14 06:22:14.070 ,1,0,,0,0.,4.8,1.,4.8,,0,0.,4.8,0.,4.8
1980-11-14 06:22:18.870 ,1,0,,0,0.,4.8,0.,4.8,,0,0.,4.8,0.,4.8
1980-11-14 06:22:23.670 ,1,0,,0,0.,4.8,0.,4.8,,0,0.,4.8,0.,4.8
1980-11-14 06:22:28.470 ,1,0,,0,0.,4.8,0.,4.8,,0,0.,4.8,0.,4.8
1980-11-14 06:22:33.270 ,1,0,,0,0.,4.8,0.,4.8,,0,0.,4.8,0.,4.8
1980-11-14 06:22:38.070 ,1,0,,0,0.,4.8,0.,4.8,,0,0.,4.8,0.,4.8
1980-11-14 06:22:42.870 ,1,0,,0,0.,4.8,0.,4.8,,0,0.,4.8,0.,4.8
1980-11-14 06:22:47.670 ,1,0,,0,0.,4.8,0.,4.8,,0,0.,4.8,0.,4.8
1980-11-14 06:22:52.470 ,1,0,,0,0.,4.8,0.,4.8,,0,0.,4.8,0.,4.8
1980-11-14 06:22:57.270 ,1,0,,0,0.,4.8,0.,4.8,,0,0.,4.8,0.,4.8
1980-11-14 06:23:02.070 ,2,0,,0,0.,4.8,0.,4.8,,0,0.,4.8,0.,4.8
1980-11-14 06:23:06.870 ,2,0,,0,1.,4.8,0.,4.8,,0,0.,4.8,0.,4.8
1980-11-14 06:23:11.670 ,2,0,,0,0.,4.8,0.,4.8,,0,0.,4.8,0.,4.8
1980-11-14 06:23:16.470 ,2,0,,0,0.,4.8,0.,4.8,,0,0.,4.8,0.,4.8
1980-11-14 06:23:21.270 ,2,0,,0,0.,4.8,0.,4.8,,0,0.,4.8,0.,4.8
1980-11-14 06:23:26.070 ,2,0,,0,0.,4.8,0.,4.8,,0,0.,4.8,0.,4.8
1980-11-14 06:23:30.870 ,2,0,,0,0.,4.8,0.,4.8,,0,0.,4.8,0.,4.8
1980-11-14 06:23:35.670 ,2,0,,0,0.,4.8,0.,4.8,,0,0.,4.8,0.,4.8
1980-11-14 06:23:40.470 ,2,0,,0,0.,4.8,0.,4.8,,0,0.,4.8,0.,4.8
1980-11-14 06:23:45.270 ,2,0,,0,0.,4.8,0.,4.8,,0,0.,4.8,0.,4.8
1980-11-14 06:23:50.070 ,3,0,,0,0.,4.8,0.,4.8,,0,0.,4.8,0.,4.8
1980-11-14 06:23:54.870 ,3,0,,0,0.,4.8,0.,4.8,,0,0.,4.8,0.,4.8
1980-11-14 06:23:59.670 ,3,0,,0,0.,4.8,0.,4.8,,0,0.,4.8,0.,4.8
1980-11-14 06:24:04.470 ,3,0,,0,0.,4.8,0.,4.8,,0,0.,4.8,0.,4.8
1980-11-14 06:24:09.270 ,3,0,,0,0.,4.8,0.,4.8,,0,0.,4.8,0.,4.8
1980-11-14 06:24:14.070 ,3,0,,0,0.,4.8,0.,4.8,,0,1.,4.8,0.,4.8
1980-11-14 06:24:18.870 ,3,0,,0,0.,4.8,1.,4.8,,0,0.,4.8,0.,4.8
1980-11-14 06:24:23.670 ,3,0,,0,0.,4.8,0.,4.8,,0,0.,4.8,0.,4.8
1980-11-14 06:24:28.470 ,3,0,,0,0.,4.8,0.,4.8,,0,0.,4.8,1.,4.8
1980-11-14 06:24:33.270 ,3,0,,0,0.,4.8,0.,4.8,,0,0.,4.8,0.,4.8
1980-11-14 06:24:38.070 ,4,0,,0,0.,4.8,0.,4.8,,0,0.,4.8,0.,4.8
1980-11-14 06:24:42.870 ,4,0,,0,0.,4.8,0.,4.8,,0,0.,4.8,0.,4.8
1980-11-14 06:24:47.670 ,4,0,,0,0.,4.8,0.,4.8,,0,0.,4.8,0.,4.8
1980-11-14 06:24:52.470 ,4,0,,0,0.,4.8,0.,4.8,,0,0.,4.8,0.,4.8
1980-11-14 06:24:57.270 ,4,0,,0,0.,4.8,0.,4.8,,0,0.,4.8,0.,4.8
1980-11-14 06:25:02.070 ,4,0,,0,0.,4.8,0.,4.8,,0,0.,4.8,0.,4.8
1980-11-14 06:25:06.870 ,4,0,,0,0.,4.8,0.,4.8,,0,1.,4.8,0.,4.8
1980-11-14 06:25:11.670 ,4,0,,0,0.,4.8,0.,4.8,,0,0.,4.8,0.,4.8
1980-11-14 06:25:16.470 ,4,0,,0,0.,4.8,0.,4.8,,0,0.,4.8,0.,4.8
1980-11-14 06:25:21.270 ,4,0,,0,0.,4.8,0.,4.8,,0,0.,4.8,0.,4.8
1980-11-14 06:25:26.070 ,5,0,,0,0.,4.8,0.,4.8,,0,0.,4.8,0.,4.8
1980-11-14 06:25:30.870 ,5,0,,0,0.,4.8,0.,4.8,,0,0.,4.8,0.,4.8
1980-11-14 06:25:35.670 ,5,0,,0,0.,4.8,0.,4.8,,0,0.,4.8,0.,4.8
1980-11-14 06:25:40.470 ,5,0,,0,1.,4.8,0.,4.8,,0,0.,4.8,0.,4.8
1980-11-14 06:25:45.270 ,5,0,,0,0.,4.8,0.,4.8,,0,0.,4.8,0.,4.8
1980-11-14 06:25:50.070 ,5,0,,0,0.,4.8,0.,4.8,,0,0.,4.8,0.,4.8
1980-11-14 06:25:54.870 ,5,0,,0,0.,4.8,0.,4.8,,0,0.,4.8,0.,4.8
1980-11-14 06:25:59.670 ,5,0,,0,0.,4.8,0.,4.8,,0,0.,4.8,0.,4.8
1980-11-14 06:26:04.470 ,5,0,,0,0.,4.8,1.,4.8,,0,0.,4.8,0.,4.8
1980-11-14 06:26:09.270 ,5,0,,0,0.,4.8,0.,4.8,,0,0.,4.8,0.,4.8
1980-11-14 06:26:14.070 ,6,0,,0,0.,4.8,0.,4.8,,0,0.,4.8,0.,4.8
1980-11-14 06:26:18.870 ,6,0,,0,0.,4.8,0.,4.8,,0,0.,4.8,0.,4.8
1980-11-14 06:26:23.670 ,6,0,,0,0.,4.8,0.,4.8,,0,0.,4.8,0.,4.8
1980-11-14 06:26:28.470 ,6,0,,0,0.,4.8,0.,4.8,,0,0.,4.8,0.,4.8
1980-11-14 06:26:33.270 ,6,0,,0,0.,4.8,0.,4.8,,0,0.,4.8,0.,4.8
1980-11-14 06:26:38.070 ,6,0,,0,0.,4.8,0.,4.8,,0,0.,4.8,0.,4.8
1980-11-14 06:26:42.870 ,6,0,,0,0.,4.8,0.,4.8,,0,0.,4.8,0.,4.8
1980-11-14 06:26:47.670 ,6,0,,0,0.,4.8,0.,4.8,,0,0.,4.8,0.,4.8
1980-11-14 06:26:52.470 ,6,0,,0,0.,4.8,0.,4.8,,0,0.,4.8,0.,4.8
1980-11-14 06:26:57.270 ,6,0,,0,0.,4.8,0.,4.8,,0,0.,4.8,0.,4.8
1980-11-14 06:27:02.070 ,7,0,,0,0.,4.8,0.,4.8,,0,0.,4.8,0.,4.8
1980-11-14 06:27:06.870 ,7,0,,0,0.,4.8,0.,4.8,,0,0.,4.8,0.,4.8
1980-11-14 06:27:11.670 ,7,0,,0,0.,4.8,0.,4.8,,0,0.,4.8,0.,4.8
1980-11-14 06:27:16.470 ,7,0,,0,0.,4.8,0.,4.8,,0,0.,4.8,0.,4.8
1980-11-14 06:27:21.270 ,7,0,,0,0.,4.8,0.,4.8,,0,0.,4.8,0.,4.8
1980-11-14 06:27:26.070 ,7,0,,0,0.,4.8,0.,4.8,,0,0.,4.8,0.,4.8
1980-11-14 06:27:30.870 ,7,0,,0,0.,4.8,0.,4.8,,0,0.,4.8,0.,4.8
1980-11-14 06:27:35.670 ,7,0,,0,0.,4.8,0.,4.8,,0,0.,4.8,0.,4.8
1980-11-14 06:27:40.470 ,7,0,,0,0.,4.8,0.,4.8,,0,0.,4.8,0.,4.8
1980-11-14 06:27:45.270 ,7,0,,0,0.,4.8,1.,4.8,,0,0.,4.8,0.,4.8
1980-11-14 06:27:50.070 ,7,0,,0,0.,4.8,0.,4.8,,0,0.,4.8,0.,4.8
1980-11-14 06:27:54.870 ,7,0,,0,0.,4.8,0.,4.8,,0,0.,4.8,0.,4.8
1980-11-14 06:27:59.670 ,7,0,,0,0.,4.8,0.,4.8,,0,0.,4.8,0.,4.8
1980-11-14 06:28:04.470 ,7,0,,0,0.,4.8,0.,4.8,,0,0.,4.8,0.,4.8
1980-11-14 06:28:09.270 ,7,0,,0,0.,4.8,0.,4.8,,0,0.,4.8,0.,4.8
1980-11-14 06:28:14.070 ,7,0,,0,0.,4.8,0.,4.8,,0,0.,4.8,0.,4.8
1980-11-14 06:28:18.870 ,7,0,,0,0.,4.8,0.,4.8,,0,0.,4.8,0.,4.8
1980-11-14 06:28:23.670 ,7,0,,0,0.,4.8,0.,4.8,,0,0.,4.8,0.,4.8
1980-11-14 06:28:28.470 ,7,0,,0,0.,4.8,0.,4.8,,0,0.,4.8,0.,4.8
1980-11-14 06:28:33.270 ,7,0,,0,0.,4.8,0.,4.8,,0,1.,4.8,0.,4.8
1980-11-14 06:28:38.070 ,6,0,,0,0.,4.8,0.,4.8,,0,0.,4.8,0.,4.8
1980-11-14 06:28:42.870 ,6,0,,0,0.,4.8,0.,4.8,,0,0.,4.8,0.,4.8
1980-11-14 06:28:47.670 ,6,0,,0,0.,4.8,0.,4.8,,0,0.,4.8,0.,4.8
1980-11-14 06:28:52.470 ,6,0,,0,0.,4.8,0.,4.8,,0,0.,4.8,0.,4.8
1980-11-14 06:28:57.270 ,6,0,,0,0.,4.8,0.,4.8,,0,0.,4.8,0.,4.8
1980-11-14 06:29:02.070 ,0,0,,0,0.,4.8,0.,4.8,,0,0.,4.8,0.,4.8
1980-11-14 06:29:06.870 ,0,0,,0,0.,4.8,0.,4.8,,0,0.,4.8,0.,4.8
1980-11-14 06:29:11.670 ,0,0,,0,0.,4.8,0.,4.8,,0,0.,4.8,0.,4.8
1980-11-14 06:29:16.470 ,0,0,,0,0.,4.8,0.,4.8,,0,0.,4.8,0.,4.8
1980-11-14 06:29:21.270 ,0,0,,0,,0,,0,,0,,0,,0
1980-11-14 07:28:50.670 ,0,0,,0,,0,,0,,0,,0,,0
1980-11-14 07:28:55.470 ,0,0,,0,,0,,0,,0,,0,,0
1980-11-14 07:29:00.270 ,0,0,,0,0.,4.8,0.,4.8,,0,0.,4.8,0.,4.8
1980-11-14 07:29:05.070 ,0,0,,0,0.,4.8,0.,4.8,,0,0.,4.8,0.,4.8
1980-11-14 07:29:09.870 ,0,0,,0,0.,4.8,0.,4.8,,0,0.,4.8,0.,4.8
1980-11-14 07:29:02.070 ,0,0,,0,0.,4.8,0.,4.8,,0,0.,4.8,0.,4.8
1980-11-14 07:29:06.870 ,0,0,,0,0.,4.8,0.,4.8,,0,0.,4.8,0.,4.8
1980-11-14 07:29:11.670 ,0,0,,0,0.,4.8,0.,4.8,,0,0.,4.8,0.,4.8
1980-11-14 07:29:16.470 ,0,0,,0,0.,4.8,0.,4.8,,0,0.,4.8,0.,4.8